Marietta, GA

9:10 AM EST on December 18, 2017 (GMT -0500)
Dobbins Air Force Base

Weather History for KMGE - December, 2013

Change the Weather History Date:

Tuesday, December 24, 2013

  Actual Average Record
Temperature  
Mean Temperature 33 °F -  
Max Temperature 38 °F 48 °F 69 °F (2015)
Min Temperature 27 °F 31 °F 24 °F (2005)
Degree Days  
Heating Degree Days 32    
Moisture  
Dew Point 23 °F    
Average Humidity 67    
Maximum Humidity 85    
Minimum Humidity 45    
Precipitation  
Precipitation 0.00 in - - ()
Sea Level Pressure  
Sea Level Pressure 30.39 in    
Wind  
Wind Speed 12 mph (NW)    
Max Wind Speed 20 mph    
Max Gust Speed 29 mph    
Visibility 10 miles    
Events      
Averages and records for this station are not official NWS values.
T = Trace of Precipitation, MM = Missing Value Source: NWS Daily Summary

Daily Weather History Graph

Daily Weather History Graph

Search for Another Location

Airport or City:

Trip Planner

Search our weather history database for the weather conditions in past years. The results will help you decide how hot, cold, wet, or windy it might be!

Date:

Astronomy

Dec. 24, 2013 Rise Set
Actual Time 7:40 AM EST 5:34 PM EST
Civil Twilight 7:13 AM EST 6:02 PM EST
Nautical Twilight 6:41 AM EST 6:33 PM EST
Astronomical Twilight 6:11 AM EST 7:04 PM EST
Moon No Moon Rise 11:52 AM EST (12/24)
Length of Visible Light 10h 49m
Length of Day
9h 53m
Waning Gibbous, 59% of the Moon is Illuminated
Dec 24
Waning Gibbous
Dec 25
Last Quarter
Jan 1
New
Jan 7
First Quarter
Jan 15
Full

Hourly Weather History & Observations

Time (EST) Temp. Windchill Dew Point Humidity Pressure Visibility Wind Dir Wind Speed Gust Speed Precip Events Conditions
12:58 AM 34.2 °F 25.7 °F 28.4 °F 79% 30.28 in 10.0 mi WNW 11.5 mph 21.9 mph N/A   Clear
1:58 AM 32.9 °F 23.2 °F 27.5 °F 81% 30.30 in 10.0 mi NW 13.8 mph 23.0 mph N/A   Clear
2:58 AM 32.4 °F 22.5 °F 26.8 °F 80% 30.31 in 10.0 mi NW 13.8 mph 28.8 mph N/A   Clear
3:58 AM 31.8 °F 21.0 °F 26.4 °F 80% 30.32 in 10.0 mi NW 16.1 mph 25.3 mph N/A   Clear
4:58 AM 30.9 °F 20.2 °F 26.1 °F 82% 30.34 in 10.0 mi WNW 15.0 mph - N/A   Clear
5:58 AM 30.2 °F 19.8 °F 25.7 °F 83% 30.34 in 10.0 mi NW 13.8 mph - N/A   Clear
6:58 AM 30.0 °F 20.5 °F 25.7 °F 84% 30.36 in 10.0 mi NW 11.5 mph 20.7 mph N/A   Clear
7:58 AM 29.7 °F 19.1 °F 25.7 °F 85% 30.38 in 10.0 mi NW 13.8 mph 18.4 mph N/A   Clear
8:53 AM 32.0 °F 22.5 °F 26.6 °F 80% 30.38 in 10.0 mi NW 12.7 mph - N/A   Partly Cloudy
8:58 AM 31.3 °F 22.7 °F 26.2 °F 82% 30.41 in 10.0 mi WNW 10.4 mph 19.6 mph N/A   Partly Cloudy
9:58 AM 33.4 °F 23.9 °F 25.5 °F 73% 30.42 in 10.0 mi NW 13.8 mph - N/A   Partly Cloudy
10:58 AM 35.6 °F 25.2 °F 24.4 °F 64% 30.42 in 10.0 mi NW 18.4 mph 23.0 mph N/A   Partly Cloudy
11:58 AM 37.6 °F 27.4 °F 23.9 °F 58% 30.43 in 10.0 mi WNW 19.6 mph 25.3 mph N/A   Partly Cloudy
12:58 PM 37.8 °F 29.0 °F 22.3 °F 54% 30.41 in 10.0 mi NNW 15.0 mph 21.9 mph N/A   Partly Cloudy
1:58 PM 37.4 °F 28.2 °F 21.6 °F 53% 30.41 in 10.0 mi WNW 16.1 mph 23.0 mph N/A   Partly Cloudy
2:58 PM 38.7 °F 30.5 °F 19.9 °F 47% 30.41 in 10.0 mi WNW 13.8 mph 17.3 mph N/A   Clear
3:58 PM 38.3 °F 30.1 °F 19.0 °F 46% 30.41 in 10.0 mi NW 13.8 mph 20.7 mph N/A   Clear
4:58 PM 36.7 °F 30.5 °F 16.9 °F 45% 30.42 in 10.0 mi NNW 8.1 mph - N/A   Clear
5:58 PM 34.0 °F 26.6 °F 17.4 °F 51% 30.42 in 10.0 mi NNW 9.2 mph - N/A   Clear
6:58 PM 32.9 °F 27.5 °F 18.7 °F 56% 30.43 in 10.0 mi NW 5.8 mph - N/A   Clear
7:58 PM 31.6 °F 25.1 °F 18.3 °F 58% 30.43 in 10.0 mi NW 6.9 mph - N/A   Clear
8:58 PM 30.4 °F 24.5 °F 18.0 °F 60% 30.42 in 10.0 mi NW 5.8 mph - N/A   Clear
9:58 PM 29.5 °F 24.5 °F 17.8 °F 62% 30.41 in 10.0 mi NNW 4.6 mph - N/A   Clear
10:58 PM 28.8 °F 25.0 °F 18.1 °F 65% 30.41 in 10.0 mi NNW 3.5 mph - N/A   Clear
11:58 PM 27.9 °F 24.0 °F 18.7 °F 68% 30.40 in 10.0 mi NNW 3.5 mph - N/A   Clear